• In Russia
  • List of Countries
  • For 7 days
  • Water Temperature
  • Satellite Maps
  • Weather Map
  • Weather Widgets
  • user-avatar
    Login

    Hourly Weather Solden

    Today, 13 November, Tuesday

    Time Temperature Precipitation Wind Pressure Humidity
    00:00 -1°C° 0 mm 2 mps 586 mmHg 90%
    01:00 -1°C° 0 mm 2 mps 586 mmHg 90%
    02:00 -1°C° 0 mm 2 mps 586 mmHg 90%
    03:00 -1°C° 0 mm 2 mps 585 mmHg 89%
    04:00 -1°C° 0 mm 2 mps 585 mmHg 89%
    05:00 -2°C° 0 mm 2 mps 585 mmHg 89%
    06:00 -2°C° 0 mm 2 mps 585 mmHg 88%
    07:00 -2°C° 0 mm 2 mps 586 mmHg 86%
    08:00 +2°C° 0 mm 1 mps 586 mmHg 82%
    09:00 +3°C° 0 mm 1 mps 587 mmHg 79%
    10:00 +5°C° 0 mm 1 mps 588 mmHg 75%
    11:00 +6°C° 0 mm 1 mps 589 mmHg 73%
    12:00 +7°C° 0 mm 1 mps 589 mmHg 70%
    13:00 +7°C° 0 mm 1 mps 590 mmHg 68%
    14:00 +6°C° 0 mm 1 mps 589 mmHg 73%
    15:00 +5°C° 0 mm 1 mps 589 mmHg 77%
    16:00 +5°C° 0 mm 1 mps 589 mmHg 82%
    17:00 +4°C° 0 mm 1 mps 588 mmHg 84%
    18:00 +3°C° 0 mm 1 mps 588 mmHg 86%
    19:00 +1°C° 0 mm 2 mps 588 mmHg 88%
    20:00 -1°C° 0 mm 2 mps 588 mmHg 88%
    21:00 +1°C° 0 mm 1 mps 588 mmHg 89%
    22:00 +1°C° 0 mm 1 mps 588 mmHg 89%
    23:00 +1°C° 0 mm 1 mps 588 mmHg 89%

    Tomorrow, 14 November, Wednesday

    Time Temperature Precipitation Wind Pressure Humidity
    00:00 0°C° 0 mm 1 mps 588 mmHg 89%
    01:00 0°C° 0 mm 1 mps 588 mmHg 89%
    02:00 0°C° 0 mm 1 mps 588 mmHg 89%
    03:00 -1°C° 0 mm 1 mps 587 mmHg 88%
    04:00 -1°C° 0 mm 1 mps 587 mmHg 88%
    05:00 -1°C° 0 mm 1 mps 587 mmHg 86%
    06:00 -1°C° 0 mm 1 mps 587 mmHg 85%
    07:00 -1°C° 0 mm 1 mps 587 mmHg 83%
    08:00 +1°C° 0 mm 1 mps 588 mmHg 78%
    09:00 +2°C° 0 mm 0 mps 588 mmHg 72%
    10:00 +4°C° 0 mm 0 mps 589 mmHg 67%
    11:00 +4°C° 0 mm 0 mps 590 mmHg 64%
    12:00 +5°C° 0 mm 0 mps 590 mmHg 62%
    13:00 +6°C° 0 mm 0 mps 590 mmHg 60%
    14:00 +5°C° 0 mm 0 mps 589 mmHg 64%
    15:00 +4°C° 0 mm 0 mps 588 mmHg 69%
    16:00 +2°C° 0 mm 0 mps 588 mmHg 74%
    17:00 +1°C° 0 mm 0 mps 587 mmHg 76%
    18:00 +1°C° 0 mm 1 mps 587 mmHg 78%
    19:00 0°C° 0 mm 1 mps 586 mmHg 79%
    20:00 0°C° 0 mm 1 mps 586 mmHg 78%
    21:00 0°C° 0 mm 1 mps 586 mmHg 76%
    22:00 -1°C° 0 mm 1 mps 586 mmHg 75%
    23:00 -1°C° 0 mm 1 mps 586 mmHg 73%

    Day after tomorrow, 15 November, Thursday

    Time Temperature Precipitation Wind Pressure Humidity
    00:00 -1°C° 0 mm 1 mps 586 mmHg 72%
    01:00 -1°C° 0 mm 1 mps 586 mmHg 71%
    02:00 -1°C° 0 mm 1 mps 585 mmHg 70%
    03:00 -1°C° 0 mm 1 mps 585 mmHg 70%
    04:00 -1°C° 0 mm 1 mps 585 mmHg 69%
    05:00 -1°C° 0 mm 1 mps 585 mmHg 68%
    06:00 -1°C° 0 mm 1 mps 585 mmHg 67%
    07:00 -1°C° 0 mm 1 mps 585 mmHg 66%
    08:00 +1°C° 0 mm 1 mps 586 mmHg 62%
    09:00 +3°C° 0 mm 1 mps 587 mmHg 58%
    10:00 +4°C° 0 mm 0 mps 588 mmHg 54%
    11:00 +6°C° 0 mm 1 mps 588 mmHg 53%
    12:00 +7°C° 0 mm 1 mps 588 mmHg 53%
    13:00 +7°C° 0 mm 1 mps 588 mmHg 52%
    14:00 +6°C° 0 mm 1 mps 588 mmHg 57%
    15:00 +5°C° 0 mm 1 mps 587 mmHg 63%
    16:00 +2°C° 0 mm 0 mps 586 mmHg 68%
    17:00 +1°C° 0 mm 0 mps 586 mmHg 70%
    18:00 +1°C° 0 mm 1 mps 585 mmHg 71%
    19:00 0°C° 0 mm 1 mps 585 mmHg 72%
    20:00 0°C° 0 mm 1 mps 585 mmHg 71%
    21:00 0°C° 0 mm 1 mps 585 mmHg 70%
    22:00 0°C° 0 mm 1 mps 585 mmHg 69%
    23:00 -1°C° 0 mm 0 mps 585 mmHg 69%

    16 November, Friday

    Time Temperature Precipitation Wind Pressure Humidity
    00:00 -2°C° 0 mm 0 mps 585 mmHg 68%
    01:00 -2°C° 0 mm 0 mps 585 mmHg 68%
    02:00 -2°C° 0 mm 0 mps 585 mmHg 68%
    03:00 -2°C° 0 mm 0 mps 585 mmHg 68%
    04:00 -2°C° 0 mm 0 mps 585 mmHg 68%
    05:00 -2°C° 0 mm 0 mps 585 mmHg 68%
    06:00 -2°C° 0 mm 0 mps 585 mmHg 67%
    07:00 -3°C° 0 mm 0 mps 585 mmHg 67%
    08:00 -1°C° 0 mm 0 mps 586 mmHg 64%
    09:00 +2°C° 0 mm 1 mps 587 mmHg 62%
    10:00 +3°C° 0 mm 1 mps 588 mmHg 59%
    11:00 +4°C° 0 mm 1 mps 588 mmHg 60%
    12:00 +4°C° 0 mm 1 mps 588 mmHg 61%
    13:00 +5°C° 0 mm 1 mps 588 mmHg 62%
    14:00 +4°C° 0 mm 1 mps 588 mmHg 67%
    15:00 +3°C° 0 mm 1 mps 587 mmHg 73%
    16:00 +2°C° 0 mm 1 mps 587 mmHg 78%
    17:00 +1°C° 0 mm 1 mps 586 mmHg 82%
    18:00 0°C° 0 mm 1 mps 586 mmHg 85%
    19:00 -1°C° 0 mm 1 mps 586 mmHg 89%
    20:00 -1°C° 0 mm 1 mps 586 mmHg 89%
    21:00 -2°C° 0 mm 1 mps 586 mmHg 90%
    22:00 -2°C° 0 mm 1 mps 586 mmHg 90%
    23:00 -2°C° 0 mm 1 mps 586 mmHg 90%

    17 November, Saturday

    Time Temperature Precipitation Wind Pressure Humidity
    00:00 -2°C° 0 mm 1 mps 586 mmHg 91%
    01:00 -3°C° 0 mm 1 mps 585 mmHg 91%
    02:00 -3°C° 0 mm 1 mps 585 mmHg 90%
    03:00 -3°C° 0 mm 1 mps 585 mmHg 89%
    04:00 -3°C° 0 mm 1 mps 584 mmHg 88%
    05:00 -4°C° 0 mm 1 mps 584 mmHg 87%
    06:00 -5°C° 0 mm 0 mps 584 mmHg 85%
    07:00 -5°C° 0 mm 0 mps 584 mmHg 83%
    08:00 -3°C° 0 mm 1 mps 584 mmHg 77%
    09:00 -1°C° 0 mm 1 mps 585 mmHg 71%
    10:00 0°C° 0 mm 1 mps 586 mmHg 65%
    11:00 0°C° 0 mm 1 mps 586 mmHg 63%
    12:00 -1°C° 0 mm 2 mps 586 mmHg 61%
    13:00 -1°C° 0 mm 2 mps 586 mmHg 60%
    14:00 -2°C° 0 mm 2 mps 585 mmHg 64%
    15:00 -3°C° 0 mm 2 mps 585 mmHg 68%
    16:00 -1°C° 0 mm 1 mps 584 mmHg 72%
    17:00 -2°C° 0 mm 1 mps 584 mmHg 76%
    18:00 -4°C° 0 mm 1 mps 584 mmHg 81%
    19:00 -6°C° 0 mm 1 mps 583 mmHg 85%
    20:00 -6°C° 0 mm 1 mps 583 mmHg 84%
    21:00 -8°C° 0 mm 2 mps 583 mmHg 83%
    22:00 -8°C° 0 mm 2 mps 583 mmHg 82%
    23:00 -8°C° 0 mm 2 mps 583 mmHg 77%

    18 November, Sunday

    Time Temperature Precipitation Wind Pressure Humidity
    00:00 -8°C° 0 mm 2 mps 583 mmHg 73%
    01:00 -8°C° 0 mm 2 mps 583 mmHg 68%
    02:00 -9°C° 0 mm 2 mps 582 mmHg 64%
    03:00 -8°C° 0 mm 1 mps 582 mmHg 60%
    04:00 -8°C° 0 mm 1 mps 582 mmHg 56%
    05:00 -8°C° 0 mm 1 mps 582 mmHg 53%
    06:00 -8°C° 0 mm 1 mps 581 mmHg 50%
    07:00 -8°C° 0 mm 1 mps 581 mmHg 47%
    08:00 -6°C° 0 mm 1 mps 582 mmHg 43%
    09:00 -3°C° 0 mm 1 mps 583 mmHg 39%
    10:00 -1°C° 0 mm 1 mps 584 mmHg 35%
    11:00 0°C° 0 mm 1 mps 584 mmHg 33%
    12:00 +1°C° 0 mm 1 mps 584 mmHg 31%
    13:00 +2°C° 0 mm 1 mps 584 mmHg 30%
    14:00 +1°C° 0 mm 1 mps 583 mmHg 33%
    15:00 0°C° 0 mm 1 mps 582 mmHg 37%
    16:00 -1°C° 0 mm 1 mps 581 mmHg 40%
    17:00 -3°C° 0 mm 1 mps 580 mmHg 41%
    18:00 -4°C° 0 mm 1 mps 580 mmHg 42%
    19:00 -6°C° 0 mm 1 mps 579 mmHg 43%
    20:00 -6°C° 0 mm 1 mps 579 mmHg 43%
    21:00 -6°C° 0 mm 1 mps 579 mmHg 43%
    22:00 -6°C° 0 mm 1 mps 579 mmHg 44%
    23:00 -6°C° 0 mm 1 mps 578 mmHg 43%
    Show more